COSMOS 981

Satellite information

Favourite Embed

Satellite Type and Status

PAYLOADIN ORBIT

Key statistics

Satellite COSMOS 981 at a glance.

Uptime

17346

Days in orbit

Revolutions

≈ 12.5

Per day

Orbit

LEO

Low Earth Orbit

Inclination

74.0

Latest

Satellite identification and parameters

Extended collection of information and parameters for COSMOS 981.

Object identification

Identified? True

Debris? False

Object name: COSMOS 981

International designator: 1978-005F

Object number (NORAD): 10588

Object ID (CCSDS): 10588

Country: COMMONWEALTH OF INDEPENDENT STATES (CIS)

Current information (Y/N): Y

RCS size: MEDIUM

Orbital parameters

Period: 115.527 minutes

Inclination: 74.0281 deg

SMA: 7857.471 km

Apoapsis: 1495.768 km

Periapsis: 1462.903 km

RAAN: 220.4147 deg

Eccentricy: 0.0020913

Argument of periapsis: 290.3896 deg

Mean anomaly: 242.9567 deg

Mean motion: 12.46460728 rev/day

Mean motion (dot): 0.00000012 rev/day2

B* drag term: 0.0001893 1/REarth

Two-line elements (TLE)

Creation date: July 8, 2025, 2:27 a.m.

Reference frame: TEME

Reference center: EARTH

Epoch: July 7, 2025, 8:20 p.m. UTC

TLE line 0: 0 COSMOS 981

TLE line 1: 1 10588U 78005F 25188.84785841 .00000012 00000-0 18930-3 0 9998

TLE line 2: 2 10588 74.0281 220.4147 0020913 290.3896 242.9567 12.46460728157477

Live tracking on map

Real-time ground track for satellite COSMOS 981.

In-orbit conjunctions

There are no conjunctions computed for COSMOS 981, at the moment. Check back to stay up to date, as we update our databases every day.

Go to all conjunctions

Associated space launch

Tselina-D satellites provided detailed observation of radio sources detected by the smaller Tselina-O satellites as part of the Tselina ELINT system.

COSMOS 981 was lifted into orbit during the mission ‘Vostok 8A92M | Tselina-D 14’, on board a Vostok 8A92M space rocket.

The launch took place on Jan. 10, 1978, 1:23 p.m. from 43/4 (43R).

For more information about the launch, click the button.

Launch to space Vostok 8A92M | Tselina-D 14
Vostok 8A92M | Tselina-D 14

Agency: N/A

Status: Launch Successful

Launch date: Jan. 10, 1978, 1:23 p.m. UTC

Rocket: Vostok 8A92M

Launch pad: 43/4 (43R)

Location: Plesetsk Cosmodrome, Russian Federation

...

Latest news about this satellite

There are no fresh news available about this satellite. Check back as we update our databases every day.


Newsletter sign-up

Weekly statistics, charts and insights to help you stay on top of the space industry.